COSMOS 2529 (757)

Last updated on Mon Oct 20 2025 00:03:19 GMT+0000 (Coordinated Universal Time)

1 43687U 18086A 25291.98199266 -.00000014 00000+0 00000+0 0 9994 2 43687 64.2922 200.7377 0009058 256.7471 103.1881 2.13102005 54145
UTC large
Height (km)
Speed (km/s)
/
Latitude / Longitude
Inclination (degrees)
Orbital Period (minutes)
Azimuth
Elevation
Range (km)
Doppler Factor

Next 0 passes for location: London (51.5072 / 0.1276)

Sorry there are no passes over London.